| time (UTC) | temp F | wind direction | speed MPH | gust MPH | rain 1hr in | rain 24hr in | rain mn in | humidity % | barometer mb |
| 20260508134545 | 54 | 349 | 9.0 | 16.0 | 0.00 | 0.00 | 0.00 | 41 | 1009.2 |
| 20260508133045 | 53 | 319 | 7.0 | 13.0 | 0.00 | 0.00 | 0.00 | 45 | 1009.2 |
| 20260508131545 | 54 | 269 | 5.0 | 11.0 | 0.00 | 0.00 | 0.00 | 44 | 1009.3 |
| 20260508130045 | 53 | 294 | 7.0 | 11.0 | 0.00 | 0.00 | 0.00 | 43 | 1009.3 |
| 20260508124543 | 52 | 321 | 6.0 | 12.0 | 0.00 | 0.00 | 0.00 | 46 | 1009.4 |
| 20260508123046 | 51 | 321 | 6.0 | 11.0 | 0.00 | 0.00 | 0.00 | 48 | 1009.5 |
| 20260508121539 | 50 | 298 | 5.0 | 11.0 | 0.00 | 0.00 | 0.00 | 51 | 1009.6 |
| 20260508120038 | 49 | 316 | 3.0 | 8.0 | 0.00 | 0.00 | 0.00 | 51 | 1009.6 |
| 20260508114523 | 48 | 329 | 3.0 | 8.0 | 0.00 | 0.00 | 0.00 | 56 | 1009.6 |
| 20260508113020 | 48 | 238 | 2.0 | 7.0 | 0.00 | 0.00 | 0.00 | 57 | 1009.5 |
| 20260508111507 | 46 | 321 | 3.0 | 8.0 | 0.00 | 0.00 | 0.00 | 59 | 1009.5 |
| 20260508110003 | 45 | 319 | 1.0 | 3.0 | 0.00 | 0.00 | 0.00 | 63 | 1009.5 |
| 20260508104541 | 44 | 279 | 0.0 | 2.0 | 0.00 | 0.00 | 0.00 | 63 | 1009.4 |
| 20260508103045 | 44 | 331 | 1.0 | 4.0 | 0.00 | 0.00 | 0.00 | 63 | 1009.1 |
| 20260508101520 | 44 | 273 | 2.0 | 4.0 | 0.00 | 0.00 | 0.00 | 62 | 1009.0 |
| 20260508100018 | 43 | 299 | 2.0 | 5.0 | 0.00 | 0.00 | 0.00 | 63 | 1008.8 |
| 20260508094601 | 43 | 275 | 2.0 | 4.0 | 0.00 | 0.00 | 0.00 | 64 | 1008.7 |
| 20260508093058 | 43 | 273 | 2.0 | 5.0 | 0.00 | 0.00 | 0.00 | 64 | 1008.6 |
| 20260508091602 | 43 | 259 | 2.0 | 4.0 | 0.00 | 0.00 | 0.00 | 64 | 1008.5 |
| 20260508090042 | 44 | 279 | 2.0 | 6.0 | 0.00 | 0.00 | 0.00 | 63 | 1008.5 |
| 20260508084516 | 44 | 292 | 1.0 | 4.0 | 0.00 | 0.00 | 0.00 | 63 | 1008.2 |
| 20260508083014 | 44 | 275 | 4.0 | 6.0 | 0.00 | 0.00 | 0.00 | 61 | 1008.1 |
| 20260508081610 | 44 | 275 | 1.0 | 3.0 | 0.00 | 0.00 | 0.00 | 57 | 1007.9 |
| 20260508080055 | 44 | 298 | 1.0 | 4.0 | 0.00 | 0.00 | 0.00 | 58 | 1007.6 |
| 20260508074536 | 45 | 288 | 1.0 | 4.0 | 0.00 | 0.00 | 0.00 | 58 | 1007.2 |
| 20260508073031 | 45 | 328 | 2.0 | 4.0 | 0.00 | 0.00 | 0.00 | 56 | 1007.1 |
| 20260508071514 | 46 | 322 | 3.0 | 5.0 | 0.00 | 0.00 | 0.00 | 55 | 1007.3 |
| 20260508070011 | 46 | 299 | 4.0 | 6.0 | 0.00 | 0.00 | 0.00 | 54 | 1007.2 |
| 20260508064553 | 47 | 298 | 4.0 | 7.0 | 0.00 | 0.00 | 0.00 | 53 | 1007.1 |
| 20260508063056 | 47 | 329 | 2.0 | 5.0 | 0.00 | 0.00 | 0.00 | 54 | 1007.0 |
| 20260508061548 | 47 | 313 | 3.0 | 5.0 | 0.00 | 0.00 | 0.00 | 54 | 1007.1 |
| 20260508060100 | 47 | 328 | 2.0 | 6.0 | 0.00 | 0.00 | 0.00 | 53 | 1007.2 |
| 20260508054626 | 47 | 322 | 3.0 | 5.0 | 0.00 | 0.00 | 0.00 | 54 | 1007.4 |
| 20260508053051 | 48 | 313 | 1.0 | 4.0 | 0.00 | 0.00 | 0.00 | 53 | 1007.5 |
| 20260508051542 | 48 | 313 | 2.0 | 4.0 | 0.00 | 0.00 | 0.00 | 52 | 1007.5 |
| 20260508050040 | 49 | 308 | 2.0 | 7.0 | 0.00 | 0.00 | 0.00 | 51 | 1007.7 |
| 20260508044521 | 49 | 302 | 2.0 | 5.0 | 0.00 | 0.00 | 0.00 | 48 | 1007.9 |
| 20260508043024 | 50 | 321 | 1.0 | 6.0 | 0.00 | 0.00 | 0.00 | 48 | 1007.8 |
| 20260508041600 | 50 | 344 | 4.0 | 7.0 | 0.00 | 0.00 | 0.00 | 47 | 1007.9 |
| 20260508040101 | 51 | 296 | 5.0 | 9.0 | 0.00 | 0.00 | 0.00 | 48 | 1007.7 |
| 20260508034546 | 51 | 328 | 4.0 | 8.0 | 0.00 | 0.00 | 0.00 | 47 | 1007.8 |
| 20260508033036 | 52 | 308 | 2.0 | 9.0 | 0.00 | 0.00 | 0.00 | 46 | 1007.8 |
| 20260508031518 | 51 | 298 | 3.0 | 6.0 | 0.00 | 0.00 | 0.00 | 47 | 1007.7 |
| 20260508030017 | 52 | 264 | 1.0 | 8.0 | 0.00 | 0.00 | 0.00 | 48 | 1007.6 |
| 20260508024612 | 52 | 267 | 3.0 | 6.0 | 0.00 | 0.00 | 0.00 | 47 | 1007.4 |
| 20260508023055 | 52 | 263 | 2.0 | 5.0 | 0.00 | 0.00 | 0.00 | 47 | 1007.4 |
| 20260508021536 | 53 | 244 | 2.0 | 5.0 | 0.00 | 0.00 | 0.00 | 46 | 1007.5 |
| 20260508020034 | 53 | 254 | 1.0 | 3.0 | 0.00 | 0.00 | 0.00 | 43 | 1007.3 |
| 20260508014514 | 54 | 282 | 2.0 | 5.0 | 0.00 | 0.00 | 0.00 | 42 | 1007.1 |
| 20260508013013 | 54 | 274 | 1.0 | 4.0 | 0.00 | 0.00 | 0.00 | 41 | 1006.9 |
| 20260508011604 | 55 | 304 | 1.0 | 5.0 | 0.00 | 0.01 | 0.00 | 40 | 1006.7 |
| 20260508010054 | 55 | 342 | 2.0 | 5.0 | 0.00 | 0.01 | 0.00 | 40 | 1006.5 |
| 20260508004550 | 56 | 331 | 1.0 | 4.0 | 0.00 | 0.01 | 0.00 | 38 | 1006.3 |
| 20260508003049 | 57 | 293 | 2.0 | 8.0 | 0.00 | 0.01 | 0.00 | 37 | 1006.2 |
| 20260508001544 | 57 | 286 | 2.0 | 6.0 | 0.00 | 0.08 | 0.00 | 36 | 1006.0 |
| 20260508000041 | 58 | 309 | 6.0 | 10.0 | 0.00 | 0.08 | 0.00 | 35 | 1005.9 |
| 20260507234542 | 58 | 314 | 4.0 | 11.0 | 0.00 | 0.08 | 0.00 | 34 | 1005.8 |
| 20260507233038 | 59 | 321 | 6.0 | 11.0 | 0.00 | 0.08 | 0.00 | 34 | 1005.7 |
| 20260507231542 | 60 | 320 | 4.0 | 11.0 | 0.00 | 0.13 | 0.00 | 33 | 1005.4 |
| 20260507230040 | 60 | 312 | 6.0 | 17.0 | 0.00 | 0.13 | 0.00 | 32 | 1005.4 |
| 20260507224516 | 61 | 322 | 6.0 | 14.0 | 0.00 | 0.13 | 0.00 | 31 | 1005.2 |
| 20260507223012 | 61 | 329 | 7.0 | 18.0 | 0.00 | 0.13 | 0.00 | 32 | 1005.0 |
| 20260507221552 | 61 | 323 | 10.0 | 18.0 | 0.00 | 0.15 | 0.00 | 35 | 1004.9 |
| 20260507220052 | 62 | 325 | 5.0 | 15.0 | 0.00 | 0.15 | 0.00 | 31 | 1004.8 |
| 20260507214533 | 62 | 306 | 7.0 | 21.0 | 0.00 | 0.15 | 0.00 | 32 | 1004.8 |
| 20260507213031 | 61 | 335 | 12.0 | 19.0 | 0.00 | 0.15 | 0.00 | 33 | 1004.5 |
| 20260507211524 | 62 | 283 | 7.0 | 15.0 | 0.00 | 0.17 | 0.00 | 33 | 1004.6 |
| 20260507210013 | 61 | 281 | 8.0 | 17.0 | 0.00 | 0.17 | 0.00 | 33 | 1004.7 |
| 20260507204553 | 61 | 301 | 9.0 | 17.0 | 0.00 | 0.17 | 0.00 | 33 | 1004.6 |
| 20260507203057 | 61 | 314 | 7.0 | 19.0 | 0.00 | 0.17 | 0.00 | 31 | 1004.6 |
| 20260507201533 | 62 | 323 | 7.0 | 18.0 | 0.00 | 0.17 | 0.00 | 31 | 1004.5 |
| 20260507200031 | 62 | 264 | 6.0 | 18.0 | 0.00 | 0.17 | 0.00 | 32 | 1004.7 |
| 20260507194512 | 62 | 324 | 8.0 | 18.0 | 0.00 | 0.17 | 0.00 | 33 | 1004.8 |
| 20260507193009 | 62 | 338 | 8.0 | 23.0 | 0.00 | 0.17 | 0.00 | 34 | 1004.8 |
| 20260507191557 | 62 | 325 | 7.0 | 19.0 | 0.00 | 0.17 | 0.17 | 33 | 1005.0 |
| 20260507190055 | 61 | 339 | 8.0 | 23.0 | 0.00 | 0.17 | 0.17 | 39 | 1005.1 |
| 20260507184554 | 61 | 355 | 4.0 | 20.0 | 0.00 | 0.17 | 0.17 | 33 | 1005.2 |
| 20260507183053 | 61 | 314 | 11.0 | 17.0 | 0.00 | 0.17 | 0.17 | 37 | 1005.2 |
| 20260507181553 | 61 | 247 | 3.0 | 14.0 | 0.00 | 0.17 | 0.17 | 37 | 1005.3 |
| 20260507180059 | 60 | 355 | 10.0 | 17.0 | 0.00 | 0.17 | 0.17 | 37 | 1005.4 |
| 20260507174606 | 60 | 355 | 7.0 | 15.0 | 0.00 | 0.17 | 0.17 | 35 | 1005.2 |
| 20260507173053 | 61 | 329 | 6.0 | 16.0 | 0.00 | 0.17 | 0.17 | 36 | 1005.4 |
| 20260507171548 | 61 | 274 | 4.0 | 18.0 | 0.00 | 0.17 | 0.17 | 40 | 1005.6 |
| 20260507170037 | 61 | 256 | 6.0 | 14.0 | 0.00 | 0.17 | 0.17 | 45 | 1005.7 |
| 20260507164544 | 60 | 306 | 9.0 | 18.0 | 0.00 | 0.17 | 0.17 | 48 | 1005.9 |
| 20260507163043 | 59 | 308 | 6.0 | 19.0 | 0.00 | 0.17 | 0.17 | 52 | 1006.1 |
| 20260507161539 | 60 | 344 | 6.0 | 12.0 | 0.00 | 0.17 | 0.17 | 50 | 1006.2 |
| 20260507160043 | 59 | 320 | 8.0 | 15.0 | 0.00 | 0.17 | 0.17 | 53 | 1006.3 |
| 20260507154532 | 60 | 318 | 6.0 | 15.0 | 0.00 | 0.17 | 0.17 | 51 | 1006.4 |
| 20260507153032 | 59 | 234 | 5.0 | 12.0 | 0.00 | 0.17 | 0.17 | 49 | 1006.4 |
| 20260507151512 | 58 | 304 | 9.0 | 15.0 | 0.00 | 0.17 | 0.17 | 51 | 1006.7 |
| 20260507150012 | 58 | 321 | 8.0 | 18.0 | 0.00 | 0.17 | 0.17 | 49 | 1006.8 |
| 20260507144611 | 58 | 14 | 5.0 | 14.0 | 0.00 | 0.17 | 0.17 | 52 | 1006.9 |
| 20260507143055 | 57 | 331 | 5.0 | 16.0 | 0.00 | 0.17 | 0.17 | 53 | 1006.9 |
| 20260507141552 | 57 | 309 | 6.0 | 13.0 | 0.00 | 0.17 | 0.17 | 55 | 1006.9 |
| 20260507140033 | 56 | 265 | 4.0 | 7.0 | 0.00 | 0.17 | 0.17 | 57 | 1006.8 |